Date_and_time,latitude,longitude,wind_speed,RelWindDirFrom,WindDirFrom,air_pressure,air_temperature,relative_humidity,Temp,platform_speed_wrt_ground,air_pressure_at_mean_sea_level,platform_orientation
2019-06-25 23:30,50.630435,-96.98077,6.0,9.4,294,977.88,23.1,45,20.55,0.0,1003.34,12.6
2019-06-25 23:40,50.630445,-96.9807583333333,8.3,13.8,291,977.94,23.2,45,20.44,0.0,1003.39,12.6
2019-06-25 23:50,50.6304466666667,-96.98076,6.8,10.2,294,977.95,23.2,45,20.95,0.0,1003.37,12.6
2019-06-26 00:00,50.63044,-96.98077,5.0,9.3,292,977.93,23.3,46,20.85,0.0,1003.32,138.7
2019-06-26 00:10,50.6304433333333,-96.9807766666667,5.0,9.6,273,978.00,23.2,48,20.40,0.0,1003.39,138.7
2019-06-26 00:20,50.630445,-96.9807733333333,5.2,9.3,237,978.14,22.8,54,20.46,0.0,1003.55,138.7
2019-06-26 00:30,50.63045,-96.980775,5.5,9.5,249,978.21,22.9,52,20.41,0.0,1003.61,138.7
2019-06-26 00:40,50.6304483333333,-96.9807733333333,4.6,7.1,248,978.19,22.9,50,20.53,0.0,1003.58,138.7
2019-06-26 00:50,50.6304483333333,-96.9807716666667,4.3,9.6,264,978.26,23.2,47,20.74,0.0,1003.65,138.7
2019-06-26 01:00,50.6304483333333,-96.9807716666667,6.2,11.0,267,978.37,23.4,44,20.51,0.0,1003.78,125.3
2019-06-26 01:10,50.6304533333333,-96.98077,5.9,9.1,267,978.43,23.3,45,20.21,0.0,1003.84,125.3
2019-06-26 01:20,50.63045,-96.980765,5.7,10.1,259,978.35,23.1,45,20.06,0.0,1003.77,125.3
2019-06-26 01:30,50.63045,-96.980765,4.4,8.5,249,978.30,23.0,46,20.10,0.0,1003.72,125.3
2019-06-26 01:40,50.6304483333333,-96.9807666666667,4.1,6.2,241,978.32,22.8,48,20.35,0.0,1003.75,125.3
2019-06-26 01:50,50.6304466666667,-96.9807683333333,4.3,6.4,241,978.50,22.5,50,20.56,0.0,1003.94,125.3
2019-06-26 02:00,50.63045,-96.9808016666667,5.5,9.6,280,978.68,22.5,48,20.46,0.0,1004.13,270.0
2019-06-26 02:10,50.630445,-96.9807616666667,5.6,8.9,291,978.77,22.4,46,20.51,0.0,1004.25,270.0
2019-06-26 02:20,50.6304666666667,-96.9807933333333,4.4,7.3,284,978.97,22.0,47,20.39,0.0,1004.46,270.0
2019-06-26 02:30,50.63045,-96.980775,3.7,6.4,276,979.12,21.6,48,20.41,0.0,1004.64,270.0
2019-06-26 02:40,50.6304333333333,-96.9807566666667,4.3,5.7,285,979.28,21.0,50,20.56,0.0,1004.81,270.0
2019-06-26 02:50,50.630455,-96.9807833333333,3.9,6.2,281,979.37,20.5,52,20.39,0.0,1004.92,270.0
2019-06-26 03:00,50.6304466666667,-96.98077,3.4,5.1,286,979.46,20.2,54,20.45,0.0,1005.03,38.0
2019-06-26 03:10,50.6304483333333,-96.980765,2.6,4.7,294,979.51,19.9,55,20.52,0.0,1005.09,38.0
2019-06-26 03:20,50.6304483333333,-96.980765,1.5,3.2,282,979.54,19.7,56,20.24,0.0,1005.15,38.0
2019-06-26 03:30,50.6304483333333,-96.980765,0.8,1.7,293,979.56,19.4,58,20.07,0.0,1005.18,38.0
2019-06-26 03:40,50.6304483333333,-96.980765,1.7,2.4,276,979.62,19.2,58,20.06,0.0,1005.27,38.0
2019-06-26 03:50,50.6304483333333,-96.980765,1.9,2.9,262,979.61,18.9,59,20.18,0.0,1005.26,38.0
2019-06-26 04:00,50.6304466666667,-96.9807633333333,2.1,2.7,267,979.75,18.7,59,20.04,0.0,1005.43,90.0
2019-06-26 04:10,50.6304633333333,-96.98077,3.2,4.2,237,979.87,18.3,62,20.00,0.0,1005.59,90.0
2019-06-26 04:20,50.6304483333333,-96.9807633333333,4.1,5.3,236,979.92,17.8,64,19.96,0.0,1005.68,90.0
2019-06-26 04:30,50.63045,-96.9807666666667,4.6,6.6,235,979.97,17.6,65,20.23,0.0,1005.77,90.0
2019-06-26 04:40,50.6304483333333,-96.980765,4.0,5.0,239,980.08,17.2,67,20.21,0.0,1005.91,90.0
2019-06-26 04:50,50.6304466666667,-96.9807633333333,4.4,5.6,241,980.05,16.9,67,20.01,0.0,1005.92,90.0
2019-06-26 05:00,50.6304466666667,-96.9807616666667,4.7,6.0,245,980.06,16.6,68,20.13,0.0,1005.95,100.2
2019-06-26 05:10,50.6304466666667,-96.9807616666667,5.1,6.8,246,980.27,16.4,69,20.30,0.0,1006.19,100.2
2019-06-26 05:20,50.6304383333333,-96.98077,5.0,6.4,241,980.22,16.1,69,20.30,0.0,1006.16,100.2
2019-06-26 05:30,50.6304383333333,-96.9807716666667,4.7,6.5,244,980.22,15.9,70,20.33,0.0,1006.18,100.2
2019-06-26 05:40,50.63044,-96.9807716666667,5.0,7.2,246,980.28,15.8,70,20.32,0.0,1006.26,100.2
2019-06-26 05:50,50.6304416666667,-96.9807683333333,5.4,7.0,250,980.42,15.7,71,20.13,0.0,1006.41,100.2
2019-06-26 06:00,50.6304416666667,-96.9807666666667,5.3,6.7,246,980.40,15.7,70,20.20,0.0,1006.41,360.0
2019-06-26 06:10,50.6304666666667,-96.9807433333333,4.9,6.6,253,980.36,15.6,70,20.24,0.0,1006.40,360.0
2019-06-26 06:20,50.63044,-96.9807583333333,5.0,6.4,252,980.40,15.5,71,20.23,0.0,1006.45,360.0
2019-06-26 06:30,50.6304433333333,-96.9807633333333,4.7,6.4,251,980.46,15.3,73,20.25,0.0,1006.54,360.0
2019-06-26 06:40,50.63044,-96.9807666666667,4.8,6.7,246,980.43,15.2,74,20.18,0.0,1006.53,360.0
2019-06-26 06:50,50.6304383333333,-96.9807666666667,4.7,6.7,241,980.34,15.0,75,20.13,0.0,1006.46,360.0
2019-06-26 07:00,50.6304716666667,-96.98078,5.3,6.9,231,980.46,14.8,77,20.18,0.0,1006.60,351.6
2019-06-26 07:10,50.6304416666667,-96.9807766666667,5.2,6.5,234,980.55,14.8,79,20.10,0.0,1006.71,351.6
2019-06-26 07:20,50.6304433333333,-96.9807766666667,4.7,6.2,237,980.62,14.8,84,20.07,0.0,1006.78,351.6
2019-06-26 07:30,50.6304466666667,-96.9807733333333,4.0,5.7,242,980.75,14.7,87,20.09,0.0,1006.93,351.6
2019-06-26 07:40,50.6304466666667,-96.9807716666667,4.7,6.1,241,980.87,14.6,91,20.09,0.0,1007.06,351.6
2019-06-26 07:50,50.6304466666667,-96.98077,4.9,6.1,234,980.89,14.4,95,20.07,0.0,1007.09,351.6
2019-06-26 08:00,50.630445,-96.9807716666667,5.1,6.5,241,980.95,14.4,98,20.07,0.0,1007.16,234.7
2019-06-26 08:10,50.6304466666667,-96.9807683333333,4.9,6.9,246,981.03,14.4,99,20.07,0.0,1007.24,234.7
2019-06-26 08:20,50.6304466666667,-96.98077,5.0,7.0,247,981.09,14.3,99,20.07,0.0,1007.32,234.7
2019-06-26 08:30,50.6304466666667,-96.9807716666667,4.5,5.8,249,981.18,14.3,100,20.05,0.0,1007.42,234.7
2019-06-26 08:40,50.6304416666667,-96.9807733333333,5.1,6.6,251,981.22,14.3,100,20.02,0.0,1007.47,234.7
2019-06-26 08:50,50.6304483333333,-96.9807716666667,5.1,6.8,249,981.25,14.3,100,20.02,0.0,1007.51,234.7
2019-06-26 09:00,50.63045,-96.9807733333333,5.1,6.4,248,981.28,14.2,100,20.03,0.0,1007.55,360.0
2019-06-26 09:10,50.6304566666667,-96.980775,5.3,7.0,248,981.41,14.2,100,20.02,0.0,1007.68,360.0
2019-06-26 09:20,50.63045,-96.9807666666667,5.7,8.3,241,981.47,14.1,100,20.02,0.0,1007.75,360.0
2019-06-26 09:30,50.6304516666667,-96.980765,5.7,8.1,246,981.46,14.1,100,20.00,0.0,1007.75,360.0
2019-06-26 09:40,50.6304533333333,-96.98077,5.5,7.3,245,981.49,14.0,100,19.99,0.0,1007.79,360.0
2019-06-26 09:50,50.6304516666667,-96.9807666666667,5.9,8.2,255,981.59,14.0,100,19.99,0.0,1007.89,360.0
2019-06-26 10:00,50.63045,-96.9807666666667,5.2,7.2,257,981.61,14.1,100,19.99,0.0,1007.91,152.6
2019-06-26 10:10,50.6304483333333,-96.98077,5.6,7.7,257,981.73,14.0,100,19.99,0.0,1008.03,152.6
2019-06-26 10:20,50.630445,-96.9807666666667,5.4,7.7,249,981.88,13.9,99,19.97,0.0,1008.19,152.6
2019-06-26 10:30,50.63044,-96.9807583333333,5.8,8.3,250,981.95,13.7,99,19.94,0.0,1008.28,152.6
2019-06-26 10:40,50.6304366666667,-96.980755,5.9,7.7,247,982.05,13.6,99,19.91,0.0,1008.38,152.6
2019-06-26 10:50,50.6304266666667,-96.9807566666667,6.0,7.7,242,982.22,13.3,99,19.91,0.0,1008.58,152.6
2019-06-26 11:00,50.63041,-96.9807733333333,5.7,7.7,246,982.32,13.4,99,19.90,0.0,1008.68,161.1
2019-06-26 11:10,50.6304383333333,-96.98072,6.5,10.4,245,982.43,13.5,99,19.89,0.0,1008.79,161.1
2019-06-26 11:20,50.630435,-96.9807416666667,6.3,8.2,255,982.52,13.4,99,19.89,0.0,1008.88,161.1
2019-06-26 11:30,50.63044,-96.980755,5.7,8.3,260,982.57,13.8,97,19.87,0.0,1008.93,161.1
2019-06-26 11:40,50.63044,-96.98076,5.9,8.8,256,982.70,14.1,96,19.88,0.0,1009.04,161.1
2019-06-26 11:50,50.63044,-96.9807616666667,5.3,9.3,267,982.74,14.6,95,19.87,0.0,1009.06,161.1
2019-06-26 12:00,50.63044,-96.98076,5.8,8.5,268,982.79,14.9,95,19.86,0.0,1009.10,143.4
2019-06-26 12:10,50.63044,-96.9807616666667,5.4,8.0,267,982.84,15.3,94,19.83,0.0,1009.14,143.4
2019-06-26 12:20,50.63044,-96.9807616666667,6.6,8.7,261,982.87,15.5,93,19.82,0.0,1009.17,143.4
2019-06-26 12:30,50.6304416666667,-96.980765,6.2,9.1,265,982.94,15.8,93,19.82,0.0,1009.24,143.4
2019-06-26 12:40,50.6304316666667,-96.9807683333333,6.4,9.3,276,983.04,16.1,92,19.81,0.0,1009.33,143.4
2019-06-26 12:50,50.6304533333333,-96.98078,6.2,9.3,284,983.18,16.4,91,19.81,0.0,1009.45,143.4
2019-06-26 13:00,50.6304516666667,-96.980775,5.7,8.6,263,983.38,16.7,89,19.81,0.0,1009.65,270.0
2019-06-26 13:10,50.6304516666667,-96.9807733333333,5.5,8.7,261,983.55,17.1,85,19.81,0.0,1009.81,270.0
2019-06-26 13:20,50.63045,-96.9807716666667,5.8,9.0,258,983.71,17.6,81,19.81,0.0,1009.93,270.0
2019-06-26 13:30,50.63045,-96.98077,5.5,8.3,269,983.77,17.9,79,19.80,0.0,1009.96,270.0
2019-06-26 13:40,50.6304483333333,-96.9807683333333,6.1,8.7,278,983.91,18.2,76,19.81,0.0,1010.08,270.0
2019-06-26 13:50,50.630425,-96.980725,4.5,7.8,272,983.99,18.6,74,19.83,0.0,1010.12,270.0
2019-06-26 14:00,50.6304366666667,-96.9807433333333,6.4,9.6,266,984.04,18.9,71,19.84,0.0,1010.15,33.7
2019-06-26 14:10,50.6304383333333,-96.98075,5.8,9.3,277,984.08,19.0,71,19.86,0.0,1010.17,33.7
2019-06-26 14:20,50.6304416666667,-96.9807533333333,5.2,9.4,271,984.17,19.2,70,19.91,0.0,1010.23,33.7
2019-06-26 14:30,50.6304433333333,-96.98076,5.1,9.7,282,984.17,19.6,68,19.95,0.0,1010.21,33.7
2019-06-26 14:40,50.630445,-96.98076,4.8,8.8,257,984.33,19.9,65,19.98,0.0,1010.35,33.7
2019-06-26 14:50,50.630445,-96.9807616666667,5.5,8.6,258,984.36,20.1,62,19.98,0.0,1010.35,33.7
2019-06-26 15:00,50.6304116666667,-96.9807716666667,6.6,12.0,281,984.26,20.3,59,19.99,0.0,1010.22,200.1
2019-06-26 15:10,50.6304483333333,-96.9807683333333,8.2,12.8,293,984.17,20.4,56,20.04,0.0,1010.11,200.1
2019-06-26 15:20,50.6304433333333,-96.98076,6.0,12.0,280,984.33,20.6,56,20.06,0.0,1010.24,200.1
2019-06-26 15:30,50.6304416666667,-96.9807583333333,4.2,8.6,277,984.42,20.9,56,20.10,0.0,1010.31,200.1
2019-06-26 15:40,50.6304666666667,-96.980765,5.9,10.1,270,984.46,21.0,55,20.21,0.0,1010.33,200.1
2019-06-26 15:50,50.6304483333333,-96.9807583333333,7.7,11.6,241,984.48,21.1,54,20.27,0.0,1010.33,200.1
2019-06-26 16:00,50.63045,-96.9807583333333,5.5,9.8,268,984.48,21.4,52,20.37,0.0,1010.32,90.0
2019-06-26 16:10,50.63045,-96.98076,8.8,13.1,247,984.46,21.6,49,20.41,0.0,1010.28,90.0
2019-06-26 16:20,50.6304483333333,-96.9807583333333,6.7,10.7,264,984.40,21.7,47,20.31,0.0,1010.19,90.0
2019-06-26 16:30,50.6304483333333,-96.98076,5.7,12.1,267,984.41,22.1,47,20.32,0.0,1010.18,90.0
2019-06-26 16:40,50.6304333333333,-96.9807583333333,7.1,14.3,268,984.40,22.3,46,20.26,0.0,1010.15,90.0
2019-06-26 16:50,50.6304416666667,-96.9807633333333,7.1,11.3,270,984.41,22.5,45,20.23,0.0,1010.13,90.0
2019-06-26 17:00,50.6304433333333,-96.98076,7.3,11.7,261,984.35,22.6,43,20.25,0.0,1010.07,299.2
2019-06-26 17:10,50.6304433333333,-96.9807616666667,7.7,14.4,241,984.50,22.7,44,20.20,0.0,1010.21,299.2
2019-06-26 17:20,50.6304416666667,-96.98076,8.6,15.0,241,984.55,22.7,41,20.33,0.0,1010.25,299.2
2019-06-26 17:30,50.6304433333333,-96.9807633333333,7.3,12.2,235,984.61,22.6,43,20.40,0.0,1010.30,299.2
2019-06-26 17:40,50.630445,-96.9807616666667,4.9,10.3,244,984.56,23.0,42,20.40,0.0,1010.24,299.2
2019-06-26 17:50,50.630435,-96.980765,5.7,11.8,254,984.60,23.1,41,20.37,0.0,1010.26,299.2
2019-06-26 18:00,50.63043,-96.980715,7.1,11.8,239,984.70,23.2,42,20.31,0.0,1010.35,73.2
2019-06-26 18:10,50.630445,-96.9807583333333,7.5,13.5,241,984.68,23.3,40,20.27,0.0,1010.31,73.2
2019-06-26 18:20,50.630445,-96.9807416666667,8.0,12.4,250,984.67,23.5,39,20.39,0.0,1010.28,73.2
2019-06-26 18:30,50.6304433333333,-96.98075,8.9,14.5,235,984.74,23.7,39,20.38,0.0,1010.33,73.2
2019-06-26 18:40,50.630445,-96.9807566666667,8.3,13.8,253,984.72,24.0,38,20.36,0.0,1010.29,73.2
2019-06-26 18:50,50.6304433333333,-96.9807583333333,9.6,14.4,233,984.76,23.8,37,20.62,0.0,1010.34,73.2
2019-06-26 19:00,50.630445,-96.98076,6.7,11.5,250,984.78,23.6,38,21.06,0.0,1010.36,360.0
2019-06-26 19:10,50.630445,-96.9807616666667,6.6,13.7,252,984.81,24.0,38,21.02,0.0,1010.37,360.0
2019-06-26 19:20,50.6304466666667,-96.9807733333333,8.3,16.0,256,984.78,24.2,37,20.85,0.0,1010.34,360.0
2019-06-26 19:30,50.63042,-96.98078,11.7,15.7,234,984.91,24.0,37,20.76,0.0,1010.46,360.0
2019-06-26 19:40,50.6304466666667,-96.9807616666667,11.4,18.4,248,985.00,24.1,38,20.98,0.0,1010.55,360.0
2019-06-26 19:50,50.630445,-96.9807583333333,9.7,14.9,262,985.04,24.2,37,21.17,0.0,1010.58,360.0
2019-06-26 20:00,50.630445,-96.9807616666667,8.9,14.5,252,985.07,24.3,38,21.32,0.0,1010.60,0.0
2019-06-26 20:10,50.6304466666667,-96.9807633333333,9.1,14.1,244,985.20,24.4,38,21.18,0.0,1010.72,0.0
2019-06-26 20:20,50.630455,-96.9807783333333,8.6,13.8,261,985.24,24.1,39,21.28,0.0,1010.77,0.0
2019-06-26 20:30,50.63045,-96.98077,7.0,15.0,275,985.22,24.2,39,21.42,0.0,1010.73,0.0
2019-06-26 20:40,50.63045,-96.98077,7.6,11.8,274,985.22,24.4,38,21.28,0.0,1010.73,0.0
2019-06-26 20:50,50.630445,-96.9807716666667,8.6,14.9,268,985.20,24.9,35,21.22,0.0,1010.69,0.0
2019-06-26 21:00,50.6304466666667,-96.9807716666667,7.3,17.2,270,985.25,25.0,36,21.25,0.0,1010.73,302.3
2019-06-26 21:10,50.6304466666667,-96.9807733333333,7.7,13.0,265,985.27,25.1,35,21.02,0.0,1010.74,302.3
2019-06-26 21:20,50.630445,-96.9807716666667,7.5,15.0,260,985.29,25.1,34,21.01,0.0,1010.77,302.3
2019-06-26 21:30,50.630445,-96.9807716666667,7.5,14.4,275,985.28,25.3,35,21.03,0.0,1010.74,302.3
2019-06-26 21:40,50.630445,-96.9807716666667,9.3,15.3,253,985.47,25.3,34,20.85,0.0,1010.93,302.3
2019-06-26 21:50,50.630445,-96.9807716666667,8.4,14.4,242,985.47,25.3,33,20.79,0.0,1010.93,302.3
2019-06-26 22:00,50.6304483333333,-96.980775,9.4,15.1,254,985.44,25.6,33,20.87,0.0,1010.88,305.3
2019-06-26 22:10,50.630445,-96.980765,8.2,16.1,257,985.54,25.7,32,21.26,0.0,1010.99,305.3
2019-06-26 22:20,50.6304416666667,-96.980765,8.0,12.9,270,985.55,25.8,32,21.25,0.0,1010.98,305.3
2019-06-26 22:30,50.6304466666667,-96.9807783333333,7.4,13.1,282,985.58,25.6,33,21.18,0.0,1011.02,305.3
2019-06-26 22:40,50.6304466666667,-96.980775,8.2,14.3,289,985.54,25.5,33,21.04,0.0,1010.96,305.3
2019-06-26 22:50,50.63044,-96.9807716666667,8.1,13.9,289,985.57,25.8,33,20.96,0.0,1010.98,305.3
2019-06-26 23:00,50.6304383333333,-96.9807766666667,8.0,13.0,272,985.76,25.6,33,20.80,0.0,1011.17,270.0
2019-06-26 23:10,50.6304433333333,-96.980775,6.9,11.5,287,985.77,25.8,32,20.68,0.0,1011.18,270.0
2019-06-26 23:20,50.6304333333333,-96.98077,7.2,11.1,263,985.88,25.9,31,20.68,0.0,1011.28,270.0
2019-06-26 23:30,50.6304466666667,-96.98076,8.8,14.5,303,985.88,25.9,31,20.97,0.0,1011.28,270.0
2019-06-26 23:40,50.6304483333333,-96.9807566666667,8.0,11.5,356,986.08,24.5,45,21.32,0.0,1011.55,270.0
